Location: Daouli
(14.8671°N, 3.2030°W)
Time: 01:37:01
(UTC+00:00)

Centaur AC-119 - Pass Details

Date: 29 October 2020
Orbit: 263 x 13990 km, 26.8° (Epoch: 02 December)

Event Time Altitude Azimuth Distance (km) Brightness Sun altitude
Rises 17:59:48 0° 281° (WNW) 7,230 9.4 -4.3°
Reaches altitude 10° 18:07:46 10° 293° (WNW) 4,110 7.7 -6.2°
Maximum altitude 18:14:19 22° 341° (NNW) 1,704 4.9 -7.7°
Drops below altitude 10° 18:17:14 10° 35° (NE) 1,694 4.4 -8.4°
Enters shadow 18:17:46 - 43° (NE) 1,830 4.5 -8.5°
